[[{"header":{"parameterUnit":"m.s-1","parameterCategory":1,"la1":30.2992,"la2":30.254,"lo1":-89.0895,"lo2":-89.0443,"dy":0.0025,"dx":0.0025,"nx":19,"ny":19,"refTime":"2026-04-25T09:00:00:Z","depth":0,"parameterNumber":2,"parameterNumberName":"U-component_of_WINDS"},"data":[0,0,0,-0.5146,-0.5145,-0.5093,-0.5093,-0.5036,-0.5035,0,0,0,0,0,0,0,0,0,0,0,-0.5165,-0.5165,-0.5146,-0.5145,-0.5093,-0.5093,-0.5036,-0.5035,0,0,0,0,0,0,0,0,0,0,0,-0.5165,-0.5165,-0.5165,-0.5145,-0.5093,-0.5093,-0.5036,-0.5072,0,0,0,0,0,0,0,0,0,0,-0.5121,-0.5142,-0.5165,-0.5165,-0.5144,-0.5093,-0.5093,-0.5074,-0.507,-0.5063,0,-0.5056,0,-0.5045,-0.5032,-0.5032,0,0,0,-0.5142,-0.5146,-0.5128,-0.5165,-0.5144,-0.5094,-0.5116,-0.5071,-0.5067,-0.5058,-0.5056,-0.5053,-0.5044,-0.5032,-0.5031,-0.4999,-0.4999,0,0,-0.5145,-0.5158,-0.5131,-0.5125,-0.5133,-0.5117,-0.5114,-0.5069,-0.5068,-0.5055,-0.5052,-0.5043,-0.5031,-0.5031,-0.4999,-0.4999,0,0,0,-0.5155,-0.5161,-0.5144,-0.5128,-0.5118,-0.5116,-0.5112,-0.507,-0.5063,-0.5051,-0.5043,-0.5031,-0.5031,-0.4999,-0.4999,-0.5011,0,0,0,-0.5156,-0.5166,-0.5145,-0.5153,-0.5119,-0.5093,-0.5115,-0.5066,-0.5061,-0.5043,-0.5031,-0.503,-0.4999,-0.4999,-0.5011,-0.5015,0,0,0,-0.5167,-0.5168,-0.5162,-0.5154,-0.5132,-0.5093,-0.5084,-0.5065,-0.5056,-0.5032,-0.503,-0.4999,-0.4999,-0.5011,-0.5014,-0.5011,0,0,0,-0.5183,-0.5174,-0.5162,-0.5149,-0.5133,-0.5102,-0.5084,-0.506,-0.5041,-0.5031,-0.4999,-0.4999,-0.5011,-0.5014,-0.501,-0.501,-0.5011,0,0,-0.5179,-0.5174,-0.5165,-0.5153,-0.5127,-0.5108,-0.5085,-0.5054,-0.504,-0.5013,-0.5012,-0.5011,-0.5014,-0.5011,-0.5012,-0.5013,0,0,0,-0.5168,-0.5162,-0.5152,-0.5134,-0.5111,-0.5092,-0.5064,-0.5053,-0.503,-0.5029,-0.5008,-0.501,-0.5007,-0.5006,-0.5007,-0.5004,-0.4999,-0.4999,-0.4999,-0.5182,-0.5164,-0.5148,-0.5124,-0.5107,-0.5079,-0.5064,-0.5044,-0.5031,-0.5026,-0.5018,-0.5021,-0.5021,-0.5021,-0.5018,-0.5017,-0.5017,-0.5017,-0.5017,-0.5175,-0.5163,-0.5145,-0.5124,-0.5105,-0.5087,-0.506,-0.5051,-0.5032,-0.5026,-0.5022,-0.5017,-0.5023,-0.5019,-0.5017,-0.5017,-0.5017,-0.5017,-0.5017,-0.5182,-0.5173,-0.516,-0.5133,-0.5115,-0.5091,-0.5074,-0.5058,-0.5042,-0.5039,-0.5029,-0.5029,-0.5026,-0.5035,-0.5035,-0.5035,-0.5035,-0.5035,-0.5035,-0.5194,-0.5179,-0.5166,-0.5141,-0.5128,-0.5109,-0.5081,-0.5069,-0.505,-0.504,-0.504,-0.5027,-0.5027,-0.5027,-0.5035,-0.5035,-0.5035,-0.5035,-0.5035,-0.5193,-0.5191,-0.5171,-0.5158,-0.5128,-0.5112,-0.5091,-0.5067,-0.5054,-0.5046,-0.5034,-0.5037,-0.503,-0.5029,-0.503,-0.5038,-0.5038,-0.5038,-0.5038,-0.5199,-0.5194,-0.517,-0.5151,-0.513,-0.511,-0.5089,-0.5068,-0.5046,-0.5037,-0.5034,-0.5033,-0.5033,-0.5026,-0.5026,-0.5025,-0.5033,-0.5033,-0.5033,-0.5198,-0.519,-0.5175,-0.5153,-0.5129,-0.5108,-0.5088,-0.5068,-0.5043,-0.5032,-0.503,-0.503,-0.5029,-0.5029,-0.5018,-0.5017,-0.5016,0,0]},{"header":{"parameterUnit":"m.s-1","parameterCategory":1,"la1":30.2992,"la2":30.254,"lo1":-89.0895,"lo2":-89.0443,"dy":0.0025,"dx":0.0025,"nx":19,"ny":19,"refTime":"2026-04-25T09:00:00:Z","depth":0,"parameterNumber":3,"parameterNumberName":"V-component_of_WINDS"},"data":[0,0,0,3.7819,3.782,3.7827,3.7827,3.7859,3.7859,0,0,0,0,0,0,0,0,0,0,0,3.783,3.7831,3.7819,3.782,3.7827,3.7827,3.7859,3.7859,0,0,0,0,0,0,0,0,0,0,0,3.783,3.7831,3.7831,3.782,3.7827,3.7827,3.7858,3.7845,0,0,0,0,0,0,0,0,0,0,3.7834,3.7857,3.783,3.7832,3.782,3.7827,3.7827,3.7844,3.7846,3.7865,0,3.7885,0,3.7873,3.7863,3.7863,0,0,0,3.781,3.7856,3.7846,3.7832,3.782,3.7827,3.7821,3.7845,3.7847,3.7868,3.7885,3.7886,3.7873,3.7863,3.7863,3.8005,3.8006,0,0,3.7809,3.7839,3.7844,3.7848,3.7847,3.7821,3.7821,3.7846,3.7867,3.7885,3.7886,3.7874,3.7863,3.7864,3.8004,3.8005,0,0,0,3.7815,3.7839,3.7828,3.7847,3.7847,3.7821,3.7822,3.7866,3.786,3.7886,3.7874,3.7864,3.7864,3.8003,3.8004,3.8088,0,0,0,3.7814,3.7842,3.7828,3.7846,3.7847,3.7856,3.7842,3.7858,3.786,3.7874,3.7864,3.7865,3.8001,3.8003,3.8083,3.8123,0,0,0,3.7825,3.7843,3.7849,3.7848,3.7852,3.7855,3.785,3.7858,3.7853,3.7863,3.7865,3.8,3.8003,3.8079,3.8116,3.817,0,0,0,3.7846,3.7923,3.785,3.7932,3.7852,3.7907,3.785,3.7889,3.7907,3.7864,3.8001,3.8004,3.8077,3.8111,3.8165,3.8221,3.8247,0,0,3.796,3.7938,3.7984,3.7919,3.7994,3.7903,3.7991,3.798,3.7955,3.799,3.7993,3.8085,3.8115,3.8169,3.8379,3.84,0,0,0,3.803,3.8064,3.8077,3.8096,3.8089,3.8087,3.8059,3.8055,3.8084,3.7978,3.8117,3.8135,3.8165,3.819,3.8208,3.8232,3.8017,3.8016,3.8016,3.8235,3.8197,3.8271,3.8234,3.8253,3.8224,3.8236,3.8226,3.8183,3.8216,3.8227,3.8359,3.839,3.8403,3.8429,3.8253,3.8253,3.8253,3.8253,3.8399,3.8441,3.8381,3.8432,3.8392,3.8434,3.8409,3.8377,3.8411,3.8348,3.8373,3.8308,3.8427,3.8448,3.8259,3.8258,3.8258,3.8257,3.8257,3.853,3.8543,3.8537,3.856,3.8582,3.8542,3.8578,3.854,3.8505,3.8529,3.8537,3.8535,3.853,3.8535,3.8536,3.8536,3.8537,3.8537,3.8537,3.8669,3.8658,3.8692,3.8692,3.8699,3.8703,3.8675,3.8681,3.8679,3.8649,3.8648,3.8603,3.8445,3.8406,3.8544,3.8543,3.8542,3.8541,3.8541,3.8851,3.8804,3.8856,3.8864,3.886,3.8885,3.8836,3.8852,3.8852,3.8871,3.8819,3.8708,3.8683,3.8669,3.8637,3.8826,3.8826,3.8826,3.8827,3.8963,3.8946,3.8991,3.9005,3.9014,3.8976,3.9037,3.9016,3.8987,3.8985,3.8952,3.8906,3.8893,3.8876,3.8857,3.8827,3.906,3.906,3.906,3.9073,3.9056,3.9115,3.9085,3.9079,3.9076,3.9133,3.9152,3.9109,3.9069,3.8982,3.8973,3.8898,3.8875,3.8834,3.8806,3.875,0,0]}]]